GW3385 Weather Reports


time (UTC)temp
F
wind
direction
speed
knots
gust
knots
rain 1hr
in
rain 24hr
in
rain mn
in
humidity
%
barometer
mb
20260506003056 59 229 6.1 12.2 0.00 0.00 0.00 73 1013.2
20260506002556 59 254 7.0 11.3 0.00 0.00 0.00 72 1013.1
20260506002054 60 319 7.0 11.3 0.00 0.00 0.00 71 1013.1
20260506001554 60 287 5.2 11.3 0.00 0.00 0.00 71 1013.1
20260506001053 60 269 5.2 13.9 0.00 0.00 0.00 71 1013.0
20260506000552 60 243 5.2 13.9 0.00 0.00 0.00 71 1013.0
20260506000055 61 244 5.2 11.3 0.00 0.00 0.00 71 1013.1
20260505235556 61 272 5.2 11.3 0.00 0.00 0.00 71 1013.1
20260505235053 60 214 3.5 12.2 0.00 0.00 0.00 71 1013.2
20260505234600 60 251 7.0 13.0 0.00 0.00 0.00 71 1013.2
20260505234052 61 243 7.0 14.8 0.00 0.00 0.00 71 1013.2
20260505233552 61 270 6.1 14.8 0.00 0.00 0.00 72 1013.2
20260505233111 61 284 7.8 14.8 0.00 0.00 0.00 71 1013.1
20260505232555 61 163 7.0 13.0 0.00 0.00 0.00 72 1013.1
20260505232055 60 271 6.1 13.9 0.00 0.00 0.00 74 1013.1
20260505231557 60 271 7.0 13.9 0.00 0.00 0.00 74 1013.1
20260505231059 60 235 6.1 13.0 0.00 0.00 0.00 75 1013.2
20260505230552 59 241 7.8 13.0 0.00 0.00 0.00 75 1013.2
20260505225553 59 247 7.0 15.6 0.00 0.00 0.00 76 1013.3
20260505225053 59 305 7.8 13.0 0.00 0.00 0.00 76 1013.4
20260505224557 59 254 6.1 13.9 0.00 0.00 0.00 75 1013.5
20260505224053 59 262 7.8 15.6 0.00 0.00 0.00 74 1013.5
20260505223552 59 271 7.8 15.6 0.00 0.00 0.00 74 1013.4
20260505223101 60 263 6.1 12.2 0.00 0.00 0.00 75 1013.4
20260505222552 60 209 6.1 17.4 0.00 0.00 0.00 73 1013.4
20260505222052 61 255 5.2 17.4 0.00 0.00 0.00 73 1013.4
20260505221558 61 203 5.2 17.4 0.00 0.00 0.00 73 1013.5
20260505221051 61 239 7.0 17.4 0.00 0.00 0.00 71 1013.5
20260505220559 61 246 7.0 17.4 0.00 0.00 0.00 70 1013.5
20260505220056 61 269 7.8 13.9 0.00 0.00 0.00 69 1013.6
20260505215555 62 276 5.2 13.9 0.00 0.00 0.00 70 1013.6
20260505215055 61 259 7.0 13.9 0.00 0.00 0.00 69 1013.5
20260505214559 61 256 6.1 13.0 0.00 0.00 0.00 69 1013.6
20260505214055 61 278 6.1 13.0 0.00 0.00 0.00 69 1013.6
20260505213555 61 236 7.0 14.8 0.00 0.00 0.00 66 1013.7
20260505213056 62 167 7.0 14.8 0.00 0.00 0.00 65 1013.6
20260505212552 62 234 7.8 14.8 0.00 0.00 0.00 64 1013.5
20260505212055 62 284 6.1 12.2 0.00 0.00 0.00 63 1013.6
20260505211609 62 250 5.2 12.2 0.00 0.00 0.00 63 1013.6
20260505211056 62 205 4.3 11.3 0.00 0.00 0.00 64 1013.7
20260505210555 61 283 5.2 11.3 0.00 0.00 0.00 63 1013.7
20260505210059 61 254 3.5 12.2 0.00 0.00 0.00 62 1013.8
20260505205551 61 279 8.7 13.0 0.00 0.00 0.00 62 1013.8
20260505205055 62 306 6.1 13.9 0.00 0.00 0.00 64 1013.7
20260505204600 61 232 6.1 13.9 0.00 0.00 0.00 64 1013.6
20260505204052 61 246 6.1 13.9 0.00 0.00 0.00 65 1013.6
20260505203557 61 242 8.7 15.6 0.00 0.00 0.00 64 1013.7
20260505203058 61 242 6.1 15.6 0.00 0.00 0.00 66 1013.7
20260505202552 62 296 7.8 15.6 0.00 0.00 0.00 66 1013.6
20260505202056 62 239 6.1 15.6 0.00 0.00 0.00 63 1013.6
20260505201600 61 278 9.6 13.9 0.00 0.00 0.00 62 1013.6
20260505201056 62 297 7.8 13.9 0.00 0.00 0.00 64 1013.6
20260505200556 62 302 8.7 13.9 0.00 0.00 0.00 64 1013.6
20260505200100 62 219 5.2 11.3 0.00 0.00 0.00 60 1013.7
20260505195555 61 229 6.1 13.9 0.00 0.00 0.00 58 1013.8
20260505195052 62 185 5.2 13.9 0.00 0.00 0.00 60 1013.8
20260505194608 62 266 5.2 11.3 0.00 0.00 0.00 60 1013.8
20260505194052 62 292 6.1 12.2 0.00 0.00 0.00 62 1013.9
20260505193554 62 207 5.2 12.2 0.00 0.00 0.00 63 1013.9
20260505193057 61 235 6.1 12.2 0.00 0.00 0.00 66 1013.9
20260505192555 61 272 6.1 12.2 0.00 0.00 0.00 63 1014.0
20260505192052 62 196 5.2 13.0 0.00 0.00 0.00 62 1013.9
20260505191554 61 270 4.3 13.0 0.00 0.00 0.00 63 1013.8
20260505191054 61 196 5.2 14.8 0.00 0.00 0.00 63 1013.9
20260505190552 61 250 4.3 14.8 0.00 0.00 0.00 63 1013.9
20260505190058 62 184 6.1 13.0 0.00 0.00 0.00 64 1013.8
20260505185557 62 261 4.3 11.3 0.00 0.00 0.00 65 1013.9
20260505185057 61 188 6.1 11.3 0.00 0.00 0.00 66 1013.8
20260505184558 61 227 5.2 11.3 0.00 0.00 0.00 67 1013.7
20260505184056 61 168 6.1 11.3 0.00 0.00 0.00 68 1013.8
20260505183558 61 226 3.5 11.3 0.00 0.00 0.00 67 1013.8
20260505183058 61 161 4.3 9.6 0.00 0.00 0.00 68 1013.7
20260505182555 60 151 5.2 9.6 0.00 0.00 0.00 69 1013.9
20260505182052 60 302 5.2 10.4 0.00 0.00 0.00 69 1013.9
20260505181558 60 195 3.5 10.4 0.00 0.00 0.00 70 1013.9
20260505181053 60 215 4.3 9.6 0.00 0.00 0.00 71 1013.9
20260505180552 60 198 4.3 9.6 0.00 0.00 0.00 71 1013.9
20260505180053 60 250 4.3 9.6 0.00 0.00 0.00 71 1013.8
20260505175554 60 209 3.5 9.6 0.00 0.00 0.00 72 1013.7
20260505175055 60 200 5.2 11.3 0.00 0.00 0.00 71 1013.8
20260505174602 60 162 5.2 11.3 0.00 0.00 0.00 72 1013.7
20260505174052 60 284 6.1 11.3 0.00 0.00 0.00 72 1013.7
20260505173553 60 278 4.3 8.7 0.00 0.00 0.00 71 1013.6
20260505173058 60 298 3.5 7.0 0.00 0.00 0.00 71 1013.6
20260505172555 60 213 2.6 8.7 0.00 0.00 0.00 71 1013.5
20260505172055 60 171 4.3 8.7 0.00 0.00 0.00 70 1013.5
20260505171554 60 252 2.6 8.7 0.00 0.00 0.00 73 1013.5
20260505171052 60 227 4.3 9.6 0.00 0.00 0.00 72 1013.4
20260505170552 60 203 4.3 9.6 0.00 0.00 0.00 71 1013.4
20260505170056 61 205 3.5 8.7 0.00 0.00 0.00 71 1013.3
20260505165556 60 256 2.6 9.6 0.00 0.00 0.00 71 1013.2
20260505165052 60 174 5.2 9.6 0.00 0.00 0.00 70 1013.2
20260505164616 61 284 3.5 7.8 0.00 0.00 0.00 70 1013.1
20260505164059 61 192 3.5 7.8 0.00 0.00 0.00 68 1013.1
20260505163555 61 213 3.5 7.8 0.00 0.00 0.00 68 1013.0
20260505163105 61 324 1.7 7.8 0.00 0.00 0.00 69 1013.0
20260505162555 61 165 2.6 7.8 0.00 0.00 0.00 69 1013.0
20260505162055 60 313 1.7 7.8 0.00 0.00 0.00 68 1013.0
20260505161615 60 182 3.5 7.8 0.00 0.00 0.00 68 1012.9
20260505161056 61 230 2.6 6.1 0.00 0.00 0.00 68 1012.9
20260505160555 61 197 0.9 6.1 0.00 0.00 0.00 69 1012.9
20260505153107 60 165 1.7 4.3 0.00 0.00 0.00 69 1012.9
20260505152552 60 283 0.9 4.3 0.00 0.00 0.00 70 1012.9
20260505152051 61 242 0.9 5.2 0.00 0.00 0.00 69 1012.7
20260505151556 61 193 0.0 5.2 0.00 0.00 0.00 69 1012.7
20260505151100 61 92 0.0 1.7 0.00 0.00 0.00 68 1012.7
20260505150556 61 0 0.0 3.5 0.00 0.00 0.00 69 1012.6
20260505140553 53 346 0.9 4.3 0.00 0.00 0.00 82 1012.5
20260505130125 53 0 0.0 0.9 0.00 0.00 0.00 83 1012.0
20260505124617 53 0 0.0 0.0 0.00 0.00 0.00 83 1012.0
20260505124052 53 0 0.0 0.9 0.00 0.00 0.00 83 1012.0
20260505123552 54 0 0.0 1.7 0.00 0.00 0.00 83 1012.0
20260505123116 54 0 0.0 2.6 0.00 0.00 0.00 82 1012.0
20260505122555 54 0 0.9 2.6 0.00 0.00 0.00 83 1012.0
20260505122056 54 0 0.0 2.6 0.00 0.00 0.00 83 1012.1
20260505121600 54 330 0.9 2.6 0.00 0.00 0.00 83 1012.0
20260505121058 55 0 0.0 2.6 0.00 0.00 0.00 83 1012.0
20260505120555 55 0 0.0 2.6 0.00 0.00 0.00 83 1012.0
20260505120118 55 315 0.0 2.6 0.00 0.00 0.00 83 1012.1
20260505115555 55 0 0.0 1.7 0.00 0.00 0.00 83 1012.1
20260505115052 56 0 0.0 1.7 0.00 0.00 0.00 83 1012.1
20260505114556 56 344 0.0 1.7 0.00 0.00 0.00 82 1012.1
20260505114055 56 0 0.0 0.9 0.00 0.00 0.00 82 1012.1
20260505113552 56 0 0.0 0.9 0.00 0.00 0.00 82 1012.0
20260505113105 56 0 0.0 2.6 0.00 0.00 0.00 82 1012.0
20260505112557 56 0 0.0 2.6 0.00 0.00 0.00 82 1012.0
20260505112056 56 266 0.0 3.5 0.00 0.00 0.00 81 1012.0
20260505111556 56 266 1.7 5.2 0.00 0.00 0.00 81 1012.0
20260505111056 56 287 0.9 5.2 0.00 0.00 0.00 81 1012.1
20260505110556 56 269 2.6 7.0 0.00 0.00 0.00 80 1012.1
20260505110116 56 250 1.7 7.0 0.00 0.00 0.00 79 1012.1
20260505102052 56 253 2.6 6.1 0.00 0.00 0.00 79 1012.2
20260505101601 56 273 3.5 6.1 0.00 0.00 0.00 79 1012.3
20260505101052 56 243 1.7 5.2 0.00 0.00 0.00 80 1012.3
20260505100559 56 288 0.9 3.5 0.00 0.00 0.00 81 1012.4
20260505100053 57 0 0.9 1.7 0.00 0.00 0.00 81 1012.2
20260505095555 57 307 0.0 0.9 0.00 0.00 0.00 80 1012.3
20260505095055 57 0 0.0 1.7 0.00 0.00 0.00 79 1012.4
20260505094556 57 0 0.0 1.7 0.00 0.00 0.00 79 1012.4
20260505094058 57 0 0.0 1.7 0.00 0.00 0.00 79 1012.4
20260505093555 57 0 0.0 0.9 0.00 0.00 0.00 77 1012.5
20260505093108 57 0 0.0 0.9 0.00 0.00 0.00 77 1012.5
20260505092556 57 0 0.0 2.6 0.00 0.00 0.00 76 1012.5
20260505092053 57 0 0.0 2.6 0.00 0.00 0.00 76 1012.7
20260505091555 57 0 0.0 1.7 0.00 0.00 0.00 75 1012.8
20260505091055 57 0 0.0 2.6 0.00 0.00 0.00 75 1012.9
20260505090553 57 0 0.0 2.6 0.00 0.00 0.00 76 1012.8
20260505090057 57 308 0.9 2.6 0.00 0.00 0.00 76 1012.8
20260505085552 57 0 0.0 3.5 0.00 0.00 0.00 77 1012.8
20260505085052 57 0 0.0 3.5 0.00 0.00 0.00 78 1012.9
20260505084556 57 0 0.0 3.5 0.00 0.00 0.00 79 1012.9
20260505084055 57 291 0.9 2.6 0.00 0.00 0.00 80 1013.1
20260505083555 57 0 0.0 2.6 0.00 0.00 0.00 82 1013.0
20260505083057 57 0 0.9 2.6 0.00 0.00 0.00 82 1013.0
20260505082556 57 342 0.9 2.6 0.00 0.00 0.00 83 1013.1
20260505082053 57 342 0.0 2.6 0.00 0.00 0.00 83 1013.1
20260505081603 57 338 0.9 2.6 0.00 0.00 0.00 83 1013.2
20260505081056 57 0 0.0 1.7 0.00 0.00 0.00 83 1013.2
20260505080556 57 0 0.0 2.6 0.00 0.00 0.00 84 1013.2
20260505080109 57 0 0.0 2.6 0.00 0.00 0.00 84 1013.3
20260505075556 57 316 0.0 1.7 0.00 0.00 0.00 85 1013.3
20260505075056 57 0 0.0 1.7 0.00 0.00 0.00 85 1013.3
20260505074556 57 0 0.0 2.6 0.00 0.00 0.00 85 1013.4
20260505074052 57 0 0.0 2.6 0.00 0.00 0.00 85 1013.4
20260505073555 57 0 0.0 0.0 0.00 0.00 0.00 85 1013.4
20260505073054 57 0 0.0 1.7 0.00 0.00 0.00 85 1013.4
20260505072551 57 0 0.0 1.7 0.00 0.00 0.00 86 1013.5
20260505072056 57 0 0.0 1.7 0.00 0.00 0.00 86 1013.6
20260505071556 57 0 0.0 1.7 0.00 0.00 0.00 86 1013.5
20260505071052 57 0 0.0 1.7 0.00 0.00 0.00 86 1013.5
20260505070559 57 294 0.0 0.9 0.00 0.00 0.00 86 1013.5
20260505070110 57 0 0.0 1.7 0.00 0.00 0.00 86 1013.5
20260505065556 57 32 0.0 2.6 0.00 0.00 0.00 87 1013.4
20260505065057 57 35 0.0 2.6 0.00 0.00 0.00 87 1013.5
20260505064556 57 19 0.9 2.6 0.00 0.00 0.00 87 1013.5
20260505064056 57 0 0.0 1.7 0.00 0.00 0.00 87 1013.6
20260505063552 57 344 0.0 1.7 0.00 0.00 0.00 87 1013.5
20260505063058 57 0 0.0 1.7 0.00 0.00 0.00 87 1013.5
20260505062553 57 0 0.0 1.7 0.00 0.00 0.00 87 1013.5
20260505062051 57 0 0.0 2.6 0.00 0.00 0.00 87 1013.5
20260505061558 57 0 0.0 2.6 0.00 0.00 0.00 87 1013.5
20260505061058 57 0 1.7 5.2 0.00 0.00 0.00 87 1013.5
20260505060556 57 270 1.7 5.2 0.00 0.00 0.00 87 1013.5
20260505060056 57 251 0.9 6.1 0.00 0.00 0.00 87 1013.5
20260505055556 57 273 2.6 6.1 0.00 0.00 0.00 87 1013.7
20260505055056 57 254 0.0 6.1 0.00 0.00 0.00 87 1013.7
20260505054558 57 0 0.9 6.1 0.00 0.00 0.00 87 1013.6
20260505054059 57 257 0.0 6.1 0.00 0.00 0.00 87 1013.7
20260505053555 57 253 0.0 5.2 0.00 0.00 0.00 87 1013.6
20260505053104 57 265 2.6 7.8 0.00 0.00 0.00 87 1013.6
20260505052556 57 275 2.6 7.8 0.00 0.00 0.00 87 1013.7
20260505052058 57 285 3.5 7.0 0.00 0.00 0.00 86 1013.7
20260505051556 57 286 2.6 7.0 0.00 0.00 0.00 86 1013.7
20260505051055 57 250 1.7 5.2 0.00 0.00 0.00 86 1013.8
20260505050556 57 267 0.9 5.2 0.00 0.00 0.00 86 1013.8
20260505041555 57 169 3.5 7.0 0.00 0.00 0.00 85 1014.0
20260505041055 57 200 2.6 7.8 0.00 0.00 0.00 85 1014.1
20260505040557 57 283 3.5 8.7 0.00 0.00 0.00 85 1013.9
20260505040105 57 272 4.3 9.6 0.00 0.00 0.00 85 1013.9
20260505035555 57 261 4.3 9.6 0.00 0.00 0.00 84 1014.0
20260505035052 58 284 6.1 9.6 0.00 0.00 0.00 84 1014.1
20260505034557 58 243 1.7 8.7 0.00 0.00 0.00 84 1014.0
20260505034057 58 269 4.3 8.7 0.00 0.00 0.00 83 1013.9
20260505033556 58 268 4.3 10.4 0.00 0.00 0.00 83 1013.8
20260505033057 58 274 5.2 10.4 0.00 0.00 0.00 82 1013.8
20260505032556 58 274 3.5 8.7 0.00 0.00 0.00 82 1013.8
20260505032055 58 180 1.7 8.7 0.00 0.00 0.00 82 1013.7
20260505031555 58 286 2.6 8.7 0.00 0.00 0.00 82 1013.7
20260505031055 58 297 2.6 8.7 0.00 0.00 0.00 82 1013.5
20260505030556 58 277 3.5 9.6 0.00 0.00 0.00 81 1013.6
20260505030104 58 290 4.3 9.6 0.00 0.00 0.00 80 1013.6
20260505025556 58 297 3.5 8.7 0.00 0.00 0.00 80 1013.5
20260505025055 58 203 2.6 8.7 0.00 0.00 0.00 80 1013.5
20260505024555 58 242 2.6 10.4 0.00 0.00 0.00 80 1013.5
20260505024052 58 240 3.5 10.4 0.00 0.00 0.00 80 1013.5
20260505023556 58 271 5.2 10.4 0.00 0.00 0.00 80 1013.4
20260505023058 58 258 5.2 10.4 0.00 0.00 0.00 80 1013.3
20260505022556 58 225 3.5 10.4 0.00 0.00 0.00 80 1013.3
20260505022056 58 261 6.1 13.9 0.00 0.00 0.00 79 1013.3
20260505021559 58 278 7.0 13.9 0.00 0.00 0.00 80 1013.4
20260505021055 58 270 6.1 13.0 0.00 0.00 0.00 80 1013.3
20260505020556 58 300 7.8 13.9 0.00 0.00 0.00 79 1013.3
20260505020057 59 254 7.0 13.9 0.00 0.00 0.00 78 1013.3
20260505015556 59 291 7.8 13.9 0.00 0.00 0.00 77 1013.4
20260505015059 59 277 7.8 14.8 0.00 0.00 0.00 77 1013.3
20260505014556 59 267 7.0 14.8 0.00 0.00 0.00 78 1013.1
20260505014055 59 211 7.8 14.8 0.00 0.00 0.00 77 1013.2
20260505013555 59 215 6.1 14.8 0.00 0.00 0.00 77 1013.3
20260505013057 59 288 7.8 13.9 0.00 0.00 0.00 78 1013.3
20260505012556 59 262 7.8 13.0 0.00 0.00 0.00 79 1013.5
20260505012055 60 276 6.1 12.2 0.00 0.00 0.00 78 1013.6
20260505011557 60 331 4.3 14.8 0.00 0.00 0.00 80 1013.6
20260505011055 59 257 7.0 14.8 0.00 0.00 0.00 79 1013.6
20260505010556 59 225 9.6 14.8 0.00 0.00 0.00 79 1013.7
20260505010103 59 261 7.8 13.9 0.00 0.00 0.00 79 1013.7
20260505005556 60 277 7.0 14.8 0.00 0.00 0.00 79 1013.7
20260505005056 59 273 7.8 14.8 0.00 0.00 0.00 79 1013.6
20260505004556 60 271 8.7 14.8 0.00 0.00 0.00 77 1013.6
20260505004055 60 227 7.0 14.8 0.00 0.00 0.00 78 1013.6
20260505003559 61 242 7.0 15.6 0.00 0.00 0.00 78 1013.6